Flag for Lithuania Weather past 2 weeks in Kaunas, Lithuania

Now
77 °F

Passing clouds.


Feels Like: 78 °F
Forecast: 61 / 86 °F
Wind: 5 mph from North

Location: Kaunas

Current Time: Jul 5, 2015 at 10:51:35 AM

Latest Report: Jul 5, 2015 at 10:20 AM


Visibility: N/A

Pressure: 30.07 "Hg

Humidity: 39%

Dew point: 50 °F

Location of KaunasLocation

Historic Weather in Kaunas — Graph

°F

Kaunas temperature yesterday

Maximum temperature yesterday: 88 °F (at 4:50 PM)
Minimum temperature yesterday: 55 °F (at 3:20 AM)
Average temperature yesterday: 74 °F

Past Weeks' High & Low Weather Summary

 TemperatureHumidityPressure
High88 °F (Jul 4, 4:50 PM)100% (Jun 22, 4:20 AM)30.45 "Hg (Jun 22, 4:20 AM)
Low45 °F (Jun 22, 5:50 AM)2% (Jul 4, 8:20 PM)29.71 "Hg (Jun 23, 7:20 AM)
Average62 °F63%30.05 "Hg
* Reported Jun 20 9:20 AM — Jul 5 9:50 AM, Kaunas, Weather by CustomWeather, © 2015

Note: Actual official high and low records may vary slightly from our data, if they occured in-between our weather recording intervals... More about our weather records

Advertising

Kaunas weather history for previous 24 hours

 ConditionsComfort  
Time TempWeatherWind HumidityBarometerVisibility
9:50 AM
Sun, Jul 5
77 °FSunny.3 mph42%30.07 "Hg10 mi
9:20 AM75 °FSunny.1 mph47%30.09 "Hg10 mi
8:50 AM73 °FSunny.1 mph50%30.07 "Hg10 mi
8:20 AM70 °FSunny.2 mph53%30.07 "Hg10 mi
7:50 AM70 °FSunny.No wind53%30.07 "Hg10 mi
7:20 AM66 °FClear.No wind64%30.07 "Hg6 mi
6:50 AM64 °FSunny.No wind73%30.09 "Hg10 mi
6:20 AM59 °FSunny.No wind82%30.09 "Hg10 mi
5:50 AM57 °FClear.No wind82%30.09 "Hg10 mi
5:20 AM57 °FFog.No wind82%30.09 "HgN/A
4:50 AM59 °FFog.No wind82%30.09 "HgN/A
4:20 AM59 °FFog.No wind77%30.09 "HgN/A
3:50 AM59 °FClear.No wind77%30.09 "Hg10 mi
3:20 AM59 °FCool.No wind82%30.09 "HgN/A
2:50 AM59 °FCool.No wind82%30.09 "HgN/A
2:20 AM61 °FCool.No wind77%30.09 "HgN/A
1:50 AM63 °FMild.No wind73%30.09 "HgN/A
1:20 AM63 °FMild.No wind73%30.09 "HgN/A
12:50 AM64 °FMild.No wind68%30.09 "HgN/A
12:20 AM66 °FMild.No wind64%30.09 "HgN/A
11:50 PM
Sat, Jul 4
68 °FClear.No wind60%30.09 "Hg10 mi
11:20 PM70 °FClear.No wind53%30.09 "Hg10 mi
10:50 PM70 °FSunny.2 mph53%30.09 "Hg10 mi
10:20 PM72 °FSunny.No wind47%30.09 "Hg10 mi
9:50 PM73 °FSunny.1 mph41%30.09 "Hg10 mi
9:20 PM81 °FSunny.No wind32%30.09 "Hg10 mi
8:50 PM81 °FSunny.1 mph30%30.12 "Hg10 mi
8:20 PM82 °FSunny.6 mph2%30.12 "Hg10 mi
7:50 PM84 °FPassing clouds.9 mph19%30.12 "HgN/A
7:20 PM84 °FPassing clouds.8 mph23%30.12 "HgN/A
6:50 PM84 °FPassing clouds.13 mph11%30.12 "HgN/A
6:20 PM86 °FPassing clouds.7 mph7%30.15 "HgN/A
5:50 PM86 °FPassing clouds.10 mph20%30.15 "HgN/A
5:20 PM88 °FSunny.6 mph19%30.15 "Hg10 mi
4:50 PM88 °FPassing clouds.7 mph19%30.15 "HgN/A
4:20 PM86 °FPassing clouds.10 mph22%30.18 "HgN/A
3:50 PM86 °FPassing clouds.8 mph24%30.18 "HgN/A
3:20 PM86 °FPassing clouds.8 mph22%30.18 "HgN/A
2:50 PM86 °FPassing clouds.10 mph22%30.18 "HgN/A
2:20 PM86 °FPassing clouds.10 mph22%30.21 "HgN/A
1:50 PM86 °FPassing clouds.9 mph22%30.21 "HgN/A
1:20 PM86 °FPassing clouds.10 mph22%30.21 "HgN/A
12:50 PM84 °FPassing clouds.9 mph23%30.24 "HgN/A
12:20 PM84 °FPassing clouds.9 mph23%30.24 "HgN/A
11:50 AM84 °FPassing clouds.9 mph23%30.24 "HgN/A
11:20 AM82 °FPassing clouds.9 mph26%30.24 "HgN/A
10:50 AM81 °FSunny.9 mph30%30.27 "Hg10 mi
10:20 AM81 °FPassing clouds.6 mph32%30.27 "HgN/A
Weather by CustomWeather, © 2015

See weather overviewHow to use our weather pages